SP8AQK-13 Weather Reports


Display with metric or nautical units.
time (UTC)temp
F
wind
direction
speed
MPH
gust
MPH
rain 1hr
in
rain 24hr
in
rain mn
in
humidity
%
barometer
mb
20260506110245 79 0.0 0.0 0.00 0.00 0.00 37 1008.6
20260506104244 78 0.0 0.0 0.00 0.00 0.00 36 1008.7
20260506102243 78 0.0 0.0 0.00 0.00 0.00 36 1008.7
20260506094242 75 0.0 0.0 0.00 0.00 0.00 38 1008.8
20260506090241 74 0.0 0.0 0.00 0.00 0.00 40 1008.6
20260506084240 73 0.0 0.0 0.00 0.00 0.00 41 1008.7
20260506082239 72 0.0 0.0 0.00 0.00 0.00 42 1008.6
20260506080238 73 0.0 0.0 0.00 0.00 0.00 42 1008.5
20260506072237 71 0.0 0.0 0.00 0.00 0.00 43 1008.7
20260506070236 71 0.0 0.0 0.00 0.00 0.00 45 1008.5
20260506062235 73 0.0 0.0 0.00 0.00 0.00 42 1008.4
20260506060234 71 0.0 0.0 0.00 0.00 0.00 42 1008.7
20260506050232 64 0.0 0.0 0.00 0.00 0.00 49 1009.3
20260506044231 60 0.0 0.0 0.00 0.00 0.00 52 1009.5
20260506042230 59 0.0 0.0 0.00 0.00 0.00 53 1009.7
20260506040230 57 0.0 0.0 0.00 0.00 0.00 52 1010.0
20260506034229 57 0.0 0.0 0.00 0.00 0.00 51 1009.7
20260506032228 57 0.0 0.0 0.00 0.00 0.00 50 1009.8
20260506030228 56 0.0 0.0 0.00 0.00 0.00 52 1010.1
20260506024227 55 0.0 0.0 0.00 0.00 0.00 52 1010.0
20260506022226 52 0.0 0.0 0.00 0.00 0.00 58 1010.2
20260506020225 52 0.0 0.0 0.00 0.00 0.00 61 1010.3
20260506014225 52 0.0 0.0 0.00 0.00 0.00 59 1010.2
20260506012224 52 0.0 0.0 0.00 0.00 0.00 59 1010.2
20260506010223 52 0.0 0.0 0.00 0.00 0.00 62 1010.3
20260506004222 54 0.0 0.0 0.00 0.00 0.00 56 1010.2
20260506002222 57 0.0 0.0 0.00 0.00 0.00 49 1009.9
20260506000221 59 0.0 0.0 0.00 0.00 0.00 46 1009.8
20260505234220 61 0.0 0.0 0.00 0.00 0.00 42 1009.5
20260505232219 62 0.0 0.0 0.00 0.00 0.00 41 1009.4
20260505230219 61 0.0 0.0 0.00 0.00 0.00 42 1009.5
20260505224218 58 0.0 0.0 0.00 0.00 0.00 46 1009.8
20260505222217 57 0.0 0.0 0.00 0.00 0.00 48 1010.0
20260505220216 57 0.0 0.0 0.00 0.00 0.00 49 1010.0
20260505214216 56 0.0 0.0 0.00 0.00 0.00 51 1010.2
20260505212215 56 0.0 0.0 0.00 0.00 0.00 56 1010.4
20260505210214 57 0.0 0.0 0.00 0.00 0.00 53 1010.3
20260505204214 60 0.0 0.0 0.00 0.00 0.00 47 1010.1
20260505202213 63 0.0 0.0 0.00 0.00 0.00 40 1009.9
20260505200212 64 0.0 0.0 0.00 0.00 0.00 39 1009.8
20260505194211 66 0.0 0.0 0.00 0.00 0.00 38 1009.6
20260505192211 67 0.0 0.0 0.00 0.00 0.00 37 1009.5
20260505184209 69 0.0 0.0 0.00 0.00 0.00 35 1009.2
20260505182208 70 0.0 0.0 0.00 0.00 0.00 35 1009.1
20260505180208 71 0.0 0.0 0.00 0.00 0.00 34 1009.0
20260505174207 73 0.0 0.0 0.00 0.00 0.00 32 1008.9
20260505172207 74 0.0 0.0 0.00 0.00 0.00 30 1008.8
20260505170205 74 0.0 0.0 0.00 0.00 0.00 32 1008.8
20260505164205 75 0.0 0.0 0.00 0.00 0.00 30 1008.7
20260505162204 76 0.0 0.0 0.00 0.00 0.00 29 1008.8
20260505160203 77 0.0 0.0 0.00 0.00 0.00 25 1008.7
20260505152202 78 0.0 0.0 0.00 0.00 0.00 27 1008.9
20260505150201 79 0.0 0.0 0.00 0.00 0.00 27 1009.0
20260505140159 81 0.0 0.0 0.00 0.00 0.00 27 1009.4
20260505130157 83 0.0 0.0 0.00 0.00 0.00 25 1009.7
20260505124156 83 0.0 0.0 0.00 0.00 0.00 25 1010.1
20260505122155 82 0.0 0.0 0.00 0.00 0.00 26 1010.2
20260505120155 82 0.0 0.0 0.00 0.00 0.00 26 1010.5
20260505114154 81 0.0 0.0 0.00 0.00 0.00 25 1010.7
20260505112153 82 0.0 0.0 0.00 0.00 0.00 25 1010.7